FW4072 Weather Reports


Display with metric or nautical units.
time (UTC)temp
F
wind
direction
speed
MPH
gust
MPH
rain 1hr
in
rain 24hr
in
rain mn
in
humidity
%
barometer
mb
20260504012329 42 0.0 0.0 0.00 0.00 0.00 69 1016.4
20260504011428 42 0.0 1.0 0.00 0.00 0.00 68 1016.5
20260504010527 43 0.0 0.0 0.00 0.00 0.00 67 1016.5
20260504005647 43 0.0 0.0 0.00 0.00 0.00 66 1016.5
20260504004726 44 0.0 0.0 0.00 0.00 0.00 66 1016.5
20260504003825 44 0.0 1.0 0.00 0.00 0.00 64 1016.4
20260504002045 45 0.0 1.0 0.00 0.00 0.00 63 1016.5
20260504001124 45 0.0 1.0 0.00 0.00 0.00 63 1016.3
20260504000223 46 158 1.0 2.0 0.00 0.00 0.00 63 1016.5
20260503235322 46 0.0 1.0 0.00 0.00 0.00 64 1016.4
20260503234422 46 0.0 1.0 0.00 0.00 0.00 63 1016.4
20260503233541 45 0.0 1.0 0.00 0.00 0.00 63 1016.4
20260503232620 45 0.0 1.0 0.00 0.00 0.00 63 1016.6
20260503231720 46 0.0 1.0 0.00 0.00 0.00 62 1016.6
20260503230819 46 0.0 2.0 0.00 0.00 0.00 61 1016.5
20260503225018 46 0.0 0.0 0.00 0.00 0.00 60 1016.6
20260503224117 47 0.0 1.0 0.00 0.00 0.00 59 1016.5
20260503223208 47 0.0 0.0 0.00 0.00 0.00 57 1016.5
20260503222246 48 0.0 1.0 0.00 0.00 0.00 56 1016.7
20260503221345 48 0.0 0.0 0.00 0.00 0.00 55 1016.6
20260503220444 49 0.0 1.0 0.00 0.00 0.00 53 1016.6
20260503215543 49 0.0 1.0 0.00 0.00 0.00 52 1016.6
20260503214643 50 0.0 2.0 0.00 0.00 0.00 50 1016.7
20260503213742 51 0.0 0.0 0.00 0.00 0.00 48 1016.6
20260503212842 52 0.0 0.0 0.00 0.00 0.00 46 1016.7
20260503211041 53 0.0 1.0 0.00 0.00 0.00 44 1016.8
20260503210140 53 0.0 2.0 0.00 0.00 0.00 44 1016.9
20260503205300 53 0.0 0.0 0.00 0.00 0.00 43 1017.1
20260503204339 53 0.0 0.0 0.00 0.00 0.00 42 1017.3
20260503203521 53 0.0 1.0 0.00 0.00 0.00 42 1017.3
20260503202537 53 0.0 1.0 0.00 0.00 0.00 43 1017.2
20260503201637 52 0.0 1.0 0.00 0.00 0.00 45 1017.2
20260503200758 53 0.0 0.0 0.00 0.00 0.00 44 1017.4
20260503195836 53 0.0 0.0 0.00 0.00 0.00 43 1017.5
20260503194035 52 158 1.0 2.0 0.00 0.00 0.00 43 1017.7
20260503193134 52 0.0 0.0 0.00 0.00 0.00 43 1017.7
20260503192233 52 0.0 0.0 0.00 0.00 0.00 43 1017.9
20260503191334 52 0.0 0.0 0.00 0.00 0.00 42 1017.9
20260503190432 52 0.0 0.0 0.00 0.00 0.00 41 1017.8
20260503185533 52 0.0 0.0 0.00 0.00 0.00 40 1018.0
20260503184632 52 0.0 0.0 0.00 0.00 0.00 38 1017.9
20260503183730 53 0.0 0.0 0.00 0.00 0.00 37 1017.9
20260503182831 54 0.0 0.0 0.00 0.00 0.00 34 1017.8
20260503181028 54 135 1.0 2.0 0.00 0.00 0.00 33 1017.8
20260503180128 55 135 1.0 2.0 0.00 0.00 0.00 31 1017.8
20260503175229 55 0.0 1.0 0.00 0.00 0.00 29 1017.7
20260503174326 56 0.0 1.0 0.00 0.00 0.00 27 1017.6
20260503173426 57 0.0 2.0 0.00 0.00 0.00 26 1017.5
20260503172525 57 0.0 1.0 0.00 0.00 0.00 25 1017.6
20260503171624 57 0.0 2.0 0.00 0.00 0.00 23 1017.5
20260503170724 58 0.0 1.0 0.00 0.00 0.00 21 1017.5
20260503131237 69 0.0 2.0 0.00 0.00 0.00 1019.3
20260503130337 69 113 1.0 2.0 0.00 0.00 0.00 1019.5
20260503110629 69 135 1.0 2.0 0.00 0.00 0.00 1020.7
20260503081517 64 135 1.0 4.0 0.00 0.00 0.00 1022.5
20260503080616 65 1.0 3.0 0.00 0.00 0.00 1022.5
20260503072133 62 135 1.0 2.0 0.00 0.00 0.00 13 1022.5
20260503071213 61 113 1.0 2.0 0.00 0.00 0.00 19 1022.5
20260503070312 60 158 1.0 3.0 0.00 0.00 0.00 16 1022.5
20260503055127 50 113 1.0 2.0 0.00 0.00 0.00 49 1022.6
20260503054206 49 135 1.0 2.0 0.00 0.00 0.00 52 1022.6
20260503053307 47 0.0 2.0 0.00 0.00 0.00 55 1022.6
20260503052406 46 0.0 2.0 0.00 0.00 0.00 59 1022.7
20260503051504 44 0.0 2.0 0.00 0.00 0.00 61 1022.8
20260503050604 43 0.0 2.0 0.00 0.00 0.00 63 1022.6
20260503045743 42 135 1.0 2.0 0.00 0.00 0.00 67 1022.7
20260503044822 40 0.0 2.0 0.00 0.00 0.00 71 1022.5
20260503043902 37 113 1.0 2.0 0.00 0.00 0.00 75 1022.5
20260503042100 36 0.0 2.0 0.00 0.00 0.00 77 1022.5
20260503041200 36 0.0 2.0 0.00 0.00 0.00 77 1022.7
20260503040259 35 0.0 2.0 0.00 0.00 0.00 77 1022.5
20260503035418 35 0.0 2.0 0.00 0.00 0.00 77 1022.5
20260503034458 34 0.0 1.0 0.00 0.00 0.00 77 1022.4
20260503033557 34 0.0 2.0 0.00 0.00 0.00 78 1022.5
20260503032656 33 1.0 2.0 0.00 0.00 0.00 78 1022.5
20260503031756 33 0.0 2.0 0.00 0.00 0.00 78 1022.5
20260503030855 32 0.0 1.0 0.00 0.00 0.00 77 1022.3
20260503025054 32 0.0 0.0 0.00 0.00 0.00 76 1022.2
20260503024154 33 0.0 0.0 0.00 0.00 0.00 76 1022.4
20260503023315 33 0.0 0.0 0.00 0.00 0.00 76 1022.3
20260503022352 33 0.0 1.0 0.00 0.00 0.00 76 1022.3
20260503021452 33 0.0 0.0 0.00 0.00 0.00 76 1022.3
20260503020612 33 0.0 0.0 0.00 0.00 0.00 75 1022.2
20260503015650 33 0.0 0.0 0.00 0.00 0.00 74 1022.3
20260503014810 33 0.0 0.0 0.00 0.00 0.00 74 1022.5
20260503013849 34 0.0 0.0 0.00 0.00 0.00 74 1022.5